Cleveland Burke, OH

3:44 PM EDT on October 22, 2017 (GMT -0400)
Burke Lakefront

Weather History for KBKL - January, 2013

Change the Weather History Date:

Saturday, January 5, 2013

  Actual Average Record
Temperature  
Mean Temperature 30 °F -  
Max Temperature 36 °F 35 °F 64 °F (1998)
Min Temperature 24 °F 25 °F 0 °F (1999)
Degree Days  
Heating Degree Days 35    
Moisture  
Dew Point 22 °F    
Average Humidity 71    
Maximum Humidity 80    
Minimum Humidity 61    
Precipitation  
Precipitation 0.00 in - - ()
Sea Level Pressure  
Sea Level Pressure 30.24 in    
Wind  
Wind Speed 11 mph (SSW)    
Max Wind Speed 15 mph    
Max Gust Speed 22 mph    
Visibility 9 miles    
Events      
Averages and records for this station are not official NWS values.
T = Trace of Precipitation, MM = Missing Value Source: NWS Daily Summary

Daily Weather History Graph

Daily Weather History Graph

Search for Another Location

Airport or City:

Trip Planner

Search our weather history database for the weather conditions in past years. The results will help you decide how hot, cold, wet, or windy it might be!

Date:

Astronomy

Jan. 05, 2013 Rise Set
Actual Time 7:53 AM EST 5:11 PM EST
Civil Twilight 7:22 AM EST 5:42 PM EST
Nautical Twilight 6:47 AM EST 6:17 PM EST
Astronomical Twilight 6:14 AM EST 6:50 PM EST
Moon 12:55 AM EST (1/5) 12:02 PM EST (1/5)
Length of Visible Light 10h 20m
Length of Day
9h 18m
Last Quarter, 44% of the Moon is Illuminated
Jan 5
Last Quarter
Jan 11
New
Jan 18
First Quarter
Jan 26
Full
Feb 3
Last Quarter

Hourly Weather History & Observations

Time (EST) Temp. Windchill Dew Point Humidity Pressure Visibility Wind Dir Wind Speed Gust Speed Precip Events Conditions
12:19 AM 24.8 °F 14.0 °F 19.4 °F 80% 30.22 in 10.0 mi SW 11.5 mph - N/A   Mostly Cloudy
12:53 AM 25.0 °F 14.8 °F 19.0 °F 78% 30.25 in 10.0 mi SW 10.4 mph - N/A   Mostly Cloudy
1:23 AM 24.8 °F 14.0 °F 17.6 °F 74% 30.23 in 10.0 mi SW 11.5 mph - N/A   Scattered Clouds
1:53 AM 25.0 °F 15.5 °F 19.0 °F 78% 30.27 in 10.0 mi SW 9.2 mph - N/A   Mostly Cloudy
2:53 AM 26.1 °F 14.5 °F 19.0 °F 75% 30.29 in 10.0 mi SW 13.8 mph - N/A   Overcast
3:53 AM 25.0 °F 13.1 °F 19.0 °F 78% 30.30 in 10.0 mi SW 13.8 mph - N/A   Overcast
5:53 AM 26.1 °F 16.2 °F 19.9 °F 78% 30.31 in 10.0 mi SW 10.4 mph - N/A   Overcast
6:53 AM 27.0 °F 23.0 °F 21.0 °F 78% 30.32 in 9.0 mi South 3.5 mph - N/A   Overcast
7:53 AM 27.0 °F 19.5 °F 21.0 °F 78% 30.33 in 9.0 mi SSW 6.9 mph - N/A   Overcast
8:53 AM 27.0 °F 15.6 °F 21.0 °F 78% 30.36 in 6.0 mi SSW 13.8 mph - N/A   Haze
9:53 AM 28.0 °F 18.6 °F 21.0 °F 75% 30.34 in 7.0 mi South 10.4 mph - N/A   Overcast
10:53 AM 28.9 °F 21.9 °F 21.9 °F 75% 30.34 in 7.0 mi South 6.9 mph - N/A   Overcast
11:53 AM 30.0 °F 22.4 °F 21.9 °F 72% 30.30 in 6.0 mi SSE 8.1 mph - N/A   Haze
12:07 PM 30.2 °F 23.4 °F 23.0 °F 75% 30.28 in 7.0 mi SSE 6.9 mph - N/A   Scattered Clouds
12:53 PM 32.0 °F 23.6 °F 24.1 °F 73% 30.27 in 8.0 mi South 10.4 mph 17.3 mph N/A   Clear
1:53 PM 35.1 °F 27.4 °F 23.0 °F 61% 30.22 in 10.0 mi South 10.4 mph - N/A   Clear
2:53 PM 34.0 °F 27.2 °F 23.0 °F 64% 30.21 in 10.0 mi South 8.1 mph - N/A   Clear
3:53 PM 34.0 °F 26.6 °F 23.0 °F 64% 30.21 in 10.0 mi South 9.2 mph - N/A   Clear
4:53 PM 34.0 °F 27.2 °F 23.0 °F 64% 30.19 in 10.0 mi South 8.1 mph - N/A   Clear
5:53 PM 34.0 °F 27.2 °F 24.1 °F 67% 30.18 in 10.0 mi South 8.1 mph - N/A   Mostly Cloudy
6:53 PM 34.0 °F 24.2 °F 24.1 °F 67% 30.17 in 10.0 mi South 15.0 mph - N/A   Overcast
7:53 PM 35.1 °F 25.5 °F 24.1 °F 64% 30.16 in 10.0 mi South 15.0 mph - N/A   Overcast
8:53 PM 36.0 °F 26.7 °F 25.0 °F 64% 30.14 in 10.0 mi South 15.0 mph 21.9 mph N/A   Overcast
9:53 PM 36.0 °F 27.5 °F 25.0 °F 64% 30.13 in 10.0 mi SSW 12.7 mph 21.9 mph N/A   Overcast
10:53 PM 36.0 °F 27.5 °F 25.0 °F 64% 30.12 in 10.0 mi SSW 12.7 mph - N/A   Overcast
11:53 PM 36.0 °F 28.0 °F 26.1 °F 67% 30.11 in 10.0 mi SSW 11.5 mph - N/A   Overcast